Location: Devargunta
(16.7631°N, 80.9077°E)
Time: 11:01:37
(UTC+00:00)

Cosmos 540 Rocket - Pass Details

Date: 07 December 2021
Orbit: 739 x 754 km, 74.1° (Epoch: 26 January)

Event Time Altitude Azimuth Distance (km) Brightness Sun altitude
Exits shadow 22:27:47 13° 176° (S) 2,072 5.9 -33.6°
Drops below altitude 10° 22:28:18 10° 175° (S) 2,266 6.1 -33.5°
Sets 22:30:40 0° 173° (S) 3,191 7.0 -33.0°
